Overview Statistics Trail Chart Weather Telemetry Raw packets
 

This is the latest recevied weather packets stored in our database for station/object YO8SHU-10. If no packets are shown the sender has not sent any weather packets the latest 10 day(s).

<< 12 13 14 15 16 17 18 >>
Time Temp. Humidity Pressure Rain* Wind** Luminosity Snow
1788012020 30° C 61% 1022.3 hPa - - - -
1788010220 30.56° C 66% 1022.4 hPa - - - -
1788008420 31.11° C 71% 1022.6 hPa - - - -
1788006620 30.56° C 60% 1022.8 hPa - - - -
1788004819 30.56° C 54% 1023.1 hPa - - - -
1788003019 30° C 73% 1023.6 hPa - - - -
1788001219 29.44° C 73% 1024 hPa - - - -
1787999419 29.44° C 66% 1024.5 hPa - - - -
1787997619 28.33° C 76% 1024.8 hPa - - - -
1787995819 27.78° C 77% 1025.2 hPa - - - -
1787994019 26.67° C 76% 1025.6 hPa - - - -
1787992219 26.11° C 94% 1025.8 hPa - - - -
1787990428 24.44° C 98% 1026.1 hPa - - - -
1787988618 24.44° C 100% 1026.3 hPa - - - -
1787986818 22.78° C 100% 1026.5 hPa - - - -
1787985018 21.11° C 100% 1026.5 hPa - - - -
1787983218 19.44° C 100% 1026.5 hPa - - - -
1787981418 19.44° C 100% 1026.6 hPa - - - -
1787979618 20° C 100% 1026.6 hPa - - - -
1787977818 20° C 100% 1026.7 hPa - - - -
1787976018 15° C 100% 1026.8 hPa - - - -
1787974218 11.67° C 100% 1026.8 hPa - - - -
1787972418 12.22° C 100% 1026.8 hPa - - - -
1787970617 12.22° C 100% 1026.7 hPa - - - -
1787968817 12.22° C 100% 1027 hPa - - - -

* Rain since midnight (hover to see other rain measurements)
** Current wind speed in m/s (hover to see current wind gust speed)